OK1VCF-5 Weather Reports


time (UTC)temp
F
wind
direction
speed
knots
gust
knots
rain 1hr
in
rain 24hr
in
rain mn
in
humidity
%
barometer
mb
20260507164734 60 0 0.0 0.0 0.00 0.00 0.00 62 1017.7
20260507163235 61 0 0.0 0.0 0.00 0.00 0.00 62 1017.2
20260507161734 62 0 0.0 0.0 0.00 0.00 0.00 60 1017.1
20260507160235 64 0 0.0 0.0 0.00 0.00 0.00 58 1016.9
20260507154732 64 0 0.0 0.0 0.00 0.00 0.00 56 1016.8
20260507151731 62 0 0.0 0.0 0.00 0.00 0.00 55 1016.8
20260507150230 64 0 0.0 0.0 0.00 0.00 0.00 52
20260507144731 64 0 0.0 0.0 0.00 0.00 0.00 54 1016.4
20260507143229 66 0 0.0 0.0 0.00 0.00 0.00 50 1016.4
20260507141728 66 0 0.0 0.0 0.00 0.00 0.00 52 1016.6
20260507134725 65 0 0.0 0.0 0.00 0.00 0.00 54 1016.6
20260507133225 64 0 0.0 0.0 0.00 0.00 0.00 54 1016.7
20260507131725 66 0 0.0 0.0 0.00 0.00 0.00 53 1016.7
20260507130224 65 0 0.0 0.0 0.00 0.00 0.00 54 1016.7
20260507124723 64 0 0.0 0.0 0.00 0.00 0.00 55 1016.8
20260507123222 62 0 0.0 0.0 0.00 0.00 0.00 58 1016.6
20260507121724 62 0 0.0 0.0 0.00 0.00 0.00 55 1016.6
20260507120221 64 0 0.0 0.0 0.00 0.00 0.00 51 1016.6
20260507114720 62 0 0.0 0.0 0.00 0.00 0.00 56 1016.5
20260507113219 64 0 0.0 0.0 0.00 0.00 0.00 57 1016.5
20260507111718 64 0 0.0 0.0 0.00 0.00 0.00 52 1016.5
20260507110216 63 0 0.0 0.0 0.00 0.00 0.00 57 1016.4
20260507104717 64 0 0.0 0.0 0.00 0.00 0.00 56 1016.4
20260507103216 64 0 0.0 0.0 0.00 0.00 0.00 57 1016.4
20260507101715 63 0 0.0 0.0 0.00 0.00 0.00 58 1016.4
20260507100250 62 0 0.0 0.0 0.00 0.00 0.00 60 1016.4
20260507100214 62 0 0.0 0.0 0.00 0.00 0.00 60 1016.4
20260507094714 64 0 0.0 0.0 0.00 0.00 0.00 57 1016.1
20260507093213 62 0 0.0 0.0 0.00 0.00 0.00 58 1016.2
20260507091712 63 0 0.0 0.0 0.00 0.00 0.00 56 1016.0
20260507090211 64 0 0.0 0.0 0.00 0.00 0.00 58 1015.8
20260507084832 63 0 0.0 0.0 0.00 0.00 0.00 56 1015.8
20260507084711 63 0 0.0 0.0 0.00 0.00 0.00 56 1015.8
20260507083214 0 0 0.0 0.0 0.60 0.00 0.00 64 1015.8
20260507083208 60 0 0.0 0.0 0.00 0.00 0.00 64 1015.8
20260507081709 65 0 0.0 0.0 0.00 0.00 0.00 58 1015.6
20260507080208 64 0 0.0 0.0 0.00 0.00 0.00 61 1015.6
20260507074707 64 0 0.0 0.0 0.00 0.00 0.00 64 1015.4
20260507073207 60 0 0.0 0.0 0.00 0.00 0.00 65 1015.4
20260507071706 59 0 0.0 0.0 0.00 0.00 0.00 70 1015.3
20260507070204 57 0 0.0 0.0 0.00 0.00 0.00 72 1015.2
20260507064703 58 0 0.0 0.0 0.00 0.00 0.00 73 1015.2
20260507063202 58 0 0.0 0.0 0.00 0.00 0.00 73 1015.1
20260507061905 56 0 0.0 0.0 0.00 0.00 0.00 78 1015.2
20260507061703 56 0 0.0 0.0 0.00 0.00 0.00 78 1015.2
20260507060202 56 0 0.0 0.0 0.00 0.00 0.00 80 1015.0
20260507054701 55 0 0.0 0.0 0.00 0.00 0.00 84 1014.6
20260507053200 54 0 0.0 0.0 0.00 0.00 0.00 86 1014.4
20260507051700 52 0 0.0 0.0 0.00 0.00 0.00 90 1014.4
20260507050201 54 0 0.0 0.0 0.00 0.00 0.00 88 1014.4
20260507044658 52 0 0.0 0.0 0.00 0.00 0.00 89 1014.2
20260507043157 52 0 0.0 0.0 0.00 0.00 0.00 90 1014.0
20260507041656 52 0 0.0 0.0 0.00 0.00 0.00 90 1013.8
20260507040156 52 0 0.0 0.0 0.00 0.00 0.00 89 1013.6
20260507034655 52 0 0.0 0.0 0.00 0.00 0.00 90 1013.5
20260507033156 0 0 0.0 0.0 0.00 0.00 0.00 90 1013.2
20260507031652 52 0 0.0 0.0 0.00 0.00 0.00 90 1013.2
20260507030153 52 0 0.0 0.0 0.00 0.00 0.00 90 1013.2
20260507024650 52 0 0.0 0.0 0.00 0.00 0.00 90 1013.0
20260507023151 52 0 0.0 0.0 0.00 0.00 0.00 90 1013.0
20260507021650 52 0 0.0 0.0 0.00 0.00 0.00 93 1013.0
20260507020148 52 0 0.0 0.0 0.00 0.00 0.00 92 1013.0
20260507014649 52 0 0.0 0.0 0.00 0.00 0.00 92 1012.8
20260507013825 52 0 0.0 0.0 0.00 0.00 0.00 94 1012.8
20260507013148 52 0 0.0 0.0 0.00 0.00 0.00 94 1012.8
20260507011646 52 0 0.0 0.0 0.00 0.00 0.00 94 1012.6
20260507010146 52 0 0.0 0.0 0.00 0.00 0.00 94 1012.4
20260507004644 52 0 0.0 0.0 0.00 0.00 0.00 94 1012.2
20260507003432 53 0 0.0 0.0 0.00 0.00 0.00 94 1012.2
20260507003145 53 0 0.0 0.0 0.00 0.00 0.00 94 1012.2
20260507001644 53 0 0.0 0.0 0.00 0.00 0.00 94 1012.4
20260507000346 52 0 0.0 0.0 0.00 0.00 0.00 94 1012.0
20260507000143 52 0 0.0 0.0 0.00 0.00 0.00 94 1012.0
20260506234641 52 0 0.0 0.0 0.00 0.00 0.00 94 1011.8
20260506233143 54 0 0.0 0.0 0.00 0.00 0.00 93 1011.8
20260506231642 54 0 0.0 0.0 0.00 0.00 0.00 92 1011.6
20260506230140 55 0 0.0 0.0 0.00 0.00 0.00 92 1011.5
20260506224639 56 0 0.0 0.0 0.00 0.00 0.00 92 1011.6
20260506223256 56 0 0.0 0.0 0.00 0.00 0.00 92 1011.5
20260506223138 56 0 0.0 0.0 0.00 0.00 0.00 92 1011.5
20260506221638 56 0 0.0 0.0 0.00 0.00 0.00 91 1011.6
20260506220137 56 0 0.0 0.0 0.00 0.00 0.00 92 1011.2
20260506214635 56 0 0.0 0.0 0.00 0.00 0.00 92 1011.0
20260506213527 56 0 0.0 0.0 0.00 0.00 0.00 91 1010.6
20260506213135 56 0 0.0 0.0 0.00 0.00 0.00 91 1010.6
20260506211636 56 0 0.0 0.0 0.00 0.00 0.00 91 1010.6
20260506210132 56 0 0.0 0.0 0.00 0.00 0.00 90 1010.6
20260506204634 56 0 0.0 0.0 0.00 0.00 0.00 92 1010.8
20260506203132 56 0 0.0 0.0 0.00 0.00 0.00 89 1011.6
20260506200131 59 0 0.0 0.0 0.00 0.00 0.00 86 1011.6
20260506194629 58 0 0.0 0.0 0.00 0.00 0.00 86 1010.4
20260506193129 58 0 0.0 0.0 0.00 0.00 0.00 89 1009.2
20260506191628 60 0 0.0 0.0 0.00 0.00 0.00 89 1009.3
20260506190128 59 0 0.0 0.0 0.00 0.00 0.00 80 1008.8
20260506184627 60 0 0.0 0.0 0.00 0.00 0.00 78 1008.7
20260506183130 60 0 0.0 0.0 0.00 0.00 0.00 76 1008.4
20260506183126 60 0 0.0 0.0 0.00 0.00 0.00 76 1008.4
20260506181626 60 0 0.0 0.0 0.00 0.00 0.00 76 1008.2
20260506181624 60 0 0.0 0.0 0.00 0.00 0.00 76 1008.2
20260506180123 62 0 0.0 0.0 0.00 0.00 0.00 73 1008.0
20260506174624 62 0 0.0 0.0 0.00 0.00 0.00 72 1008.0
20260506173123 63 0 0.0 0.0 0.00 0.00 0.00 70 1007.8
20260506171625 64 0 0.0 0.0 0.00 0.00 0.00 69 1007.9